GTI3043 KAFW-KMHT

Flight info

Callsign GTI3043
Flight time 2h 50m
Altitude 37000
Route KUSSO2 LOOSE MEM BWG SHIPR PSB HNK SMYTH ROZZE2
Aircraft B738/M-SDE2E3FGHIRWXY/LB1

Departure

Time 2026-05-06 09:00
Airport Perot Field/Fort Worth Alliance Airport (KAFW)

Arrival

Time 2026-05-06 11:51
Airport Manchester-Boston Regional Airport (KMHT)
Time Latitude Longitude Altitude Speed Heading
2026-05-06 08:13 32.97845 -97.32014 678 ft 0 kts 262°
2026-05-06 08:52 32.97848 -97.31992 678 ft 4 kts 255°
2026-05-06 08:53 32.97858 -97.31963 679 ft 4 kts 236°
2026-05-06 08:53 32.97876 -97.31942 680 ft 4 kts 195°
2026-05-06 08:53 32.97889 -97.31941 680 ft 2 kts 170°
2026-05-06 08:53 32.97891 -97.31941 680 ft 2 kts 170°
2026-05-06 08:57 32.97871 -97.31937 677 ft 7 kts 170°
2026-05-06 08:57 32.97815 -97.31926 678 ft 9 kts 170°
2026-05-06 08:58 32.97754 -97.31913 677 ft 9 kts 169°
2026-05-06 08:58 32.97691 -97.31899 674 ft 9 kts 169°
2026-05-06 08:58 32.97651 -97.31849 676 ft 10 kts 93°
2026-05-06 08:58 32.97644 -97.31773 676 ft 9 kts 122°
2026-05-06 08:59 32.97584 -97.31739 673 ft 10 kts 139°
2026-05-06 08:59 32.97568 -97.31655 672 ft 11 kts 80°
2026-05-06 08:59 32.97590 -97.31571 673 ft 10 kts 61°
2026-05-06 08:59 32.97656 -97.31565 674 ft 10 kts 351°
2026-05-06 09:00 32.97864 -97.31610 682 ft 63 kts 350°
2026-05-06 09:00 32.98524 -97.31745 690 ft 127 kts 351°
2026-05-06 09:00 32.99565 -97.31953 816 ft 169 kts 351°
2026-05-06 09:00 33.00733 -97.32180 1529 ft 168 kts 351°
2026-05-06 09:01 33.01867 -97.32379 2410 ft 163 kts 352°
2026-05-06 09:01 33.03032 -97.32575 2953 ft 176 kts 352°
2026-05-06 09:01 33.04281 -97.32786 3501 ft 187 kts 352°
2026-05-06 09:01 33.05607 -97.33048 4029 ft 199 kts 349°
2026-05-06 09:02 33.07000 -97.33343 4542 ft 206 kts 348°
2026-05-06 09:02 33.07936 -97.33526 4945 ft 206 kts 348°
2026-05-06 09:02 33.09362 -97.33779 5552 ft 208 kts 348°
2026-05-06 09:02 33.10829 -97.34014 5853 ft 228 kts 348°
2026-05-06 09:03 33.12711 -97.34290 4528 ft 309 kts 349°
2026-05-06 09:03 33.14773 -97.34661 4902 ft 278 kts 349°
2026-05-06 09:03 33.16591 -97.34999 5516 ft 262 kts 348°
2026-05-06 09:03 33.18433 -97.35326 6033 ft 273 kts 348°
2026-05-06 09:04 33.20358 -97.35588 6537 ft 286 kts 359°
2026-05-06 09:04 33.22291 -97.34878 7036 ft 300 kts 33°
2026-05-06 09:04 33.23695 -97.33017 7550 ft 308 kts 65°
2026-05-06 09:04 33.24242 -97.30551 8095 ft 309 kts 83°
2026-05-06 09:05 33.24625 -97.28024 8579 ft 317 kts 80°
2026-05-06 09:05 33.25038 -97.25423 9074 ft 321 kts 81°
2026-05-06 09:05 33.25456 -97.22811 9663 ft 319 kts 80°
2026-05-06 09:05 33.25879 -97.20208 10271 ft 320 kts 80°
2026-05-06 09:06 33.26308 -97.17595 10888 ft 322 kts 80°
2026-05-06 09:06 33.26744 -97.14969 11500 ft 323 kts 80°
2026-05-06 09:06 33.27187 -97.12341 12111 ft 323 kts 80°
2026-05-06 09:06 33.27633 -97.09702 12726 ft 324 kts 80°
2026-05-06 09:07 33.28081 -97.07061 13333 ft 325 kts 79°
2026-05-06 09:07 33.28531 -97.04411 13947 ft 325 kts 79°
2026-05-06 09:07 33.28981 -97.01769 14549 ft 324 kts 79°
2026-05-06 09:07 33.29432 -96.99136 15156 ft 323 kts 79°
2026-05-06 09:08 33.29880 -96.96512 15756 ft 320 kts 79°
2026-05-06 09:08 33.30321 -96.93922 16339 ft 317 kts 80°
2026-05-06 09:08 33.30763 -96.91321 16698 ft 325 kts 80°
2026-05-06 09:08 33.31224 -96.88600 16832 ft 343 kts 80°
2026-05-06 09:09 33.31709 -96.85741 16974 ft 359 kts 79°
2026-05-06 09:09 33.32214 -96.82752 17120 ft 375 kts 79°
2026-05-06 09:09 33.32805 -96.79650 17241 ft 391 kts 75°
2026-05-06 09:09 33.33609 -96.76524 17369 ft 407 kts 71°
2026-05-06 09:10 33.34557 -96.73226 17470 ft 421 kts 70°
2026-05-06 09:10 33.35549 -96.69872 17580 ft 434 kts 70°
2026-05-06 09:10 33.36550 -96.66474 17821 ft 442 kts 70°
2026-05-06 09:10 33.37561 -96.62990 18235 ft 444 kts 71°
2026-05-06 09:11 33.38561 -96.59490 18689 ft 445 kts 71°
2026-05-06 09:11 33.39554 -96.55967 19061 ft 449 kts 71°
2026-05-06 09:11 33.40548 -96.52407 19381 ft 453 kts 71°
2026-05-06 09:11 33.41544 -96.48822 19770 ft 455 kts 71°
2026-05-06 09:12 33.42541 -96.45223 20172 ft 456 kts 71°
2026-05-06 09:12 33.43540 -96.41607 20543 ft 458 kts 71°
2026-05-06 09:12 33.44544 -96.37970 20877 ft 461 kts 71°
2026-05-06 09:12 33.45551 -96.34317 21193 ft 463 kts 71°
2026-05-06 09:13 33.46564 -96.30640 21525 ft 465 kts 71°
2026-05-06 09:13 33.47580 -96.26950 21838 ft 467 kts 71°
2026-05-06 09:13 33.48599 -96.23241 22124 ft 469 kts 71°
2026-05-06 09:13 33.49622 -96.19518 22400 ft 472 kts 71°
2026-05-06 09:14 33.50652 -96.15762 22540 ft 478 kts 71°
2026-05-06 09:14 33.51699 -96.11941 22617 ft 485 kts 71°
2026-05-06 09:14 33.52753 -96.08085 22798 ft 489 kts 71°
2026-05-06 09:14 33.53799 -96.04255 23068 ft 489 kts 71°
2026-05-06 09:15 33.54856 -96.00380 23319 ft 490 kts 71°
2026-05-06 09:15 33.55917 -95.96486 23529 ft 492 kts 71°
2026-05-06 09:15 33.56980 -95.92576 23764 ft 494 kts 71°
2026-05-06 09:15 33.58043 -95.88660 23982 ft 495 kts 71°
2026-05-06 09:16 33.59108 -95.84732 24177 ft 497 kts 71°
2026-05-06 09:16 33.60176 -95.80784 24363 ft 499 kts 71°
2026-05-06 09:16 33.61249 -95.76815 24522 ft 501 kts 71°
2026-05-06 09:16 33.62327 -95.72826 24701 ft 503 kts 72°
2026-05-06 09:17 33.63407 -95.68825 24889 ft 505 kts 71°
2026-05-06 09:17 33.64489 -95.64806 25048 ft 507 kts 71°
2026-05-06 09:17 33.65577 -95.60761 25211 ft 509 kts 71°
2026-05-06 09:17 33.66665 -95.56704 25369 ft 511 kts 71°
2026-05-06 09:18 33.67755 -95.52640 25529 ft 513 kts 71°
2026-05-06 09:18 33.68849 -95.48552 25674 ft 515 kts 71°
2026-05-06 09:18 33.69944 -95.44454 25805 ft 517 kts 72°
2026-05-06 09:18 33.71044 -95.40332 25967 ft 518 kts 71°
2026-05-06 09:19 33.72142 -95.36212 26115 ft 519 kts 72°
2026-05-06 09:19 33.73243 -95.32076 26280 ft 520 kts 72°
2026-05-06 09:19 33.74343 -95.27935 26480 ft 520 kts 72°
2026-05-06 09:19 33.75439 -95.23799 26642 ft 521 kts 71°
2026-05-06 09:20 33.76539 -95.19645 26784 ft 522 kts 71°
2026-05-06 09:20 33.77623 -95.15544 26938 ft 523 kts 71°
2026-05-06 09:20 33.78724 -95.11371 27023 ft 525 kts 71°
2026-05-06 09:20 33.79831 -95.07169 27041 ft 529 kts 72°
2026-05-06 09:21 33.80590 -95.04285 27070 ft 533 kts 71°
2026-05-06 09:21 33.81712 -95.00016 27315 ft 537 kts 71°
2026-05-06 09:21 33.82836 -94.95733 27650 ft 538 kts 71°
2026-05-06 09:21 33.83964 -94.91426 27946 ft 540 kts 71°
2026-05-06 09:22 33.85095 -94.87104 28197 ft 544 kts 71°
2026-05-06 09:22 33.86235 -94.82749 28427 ft 547 kts 71°
2026-05-06 09:22 33.87379 -94.78365 28697 ft 550 kts 71°
2026-05-06 09:22 33.88525 -94.73966 28967 ft 552 kts 71°
2026-05-06 09:23 33.89675 -94.69546 29185 ft 555 kts 71°
2026-05-06 09:23 33.90833 -94.65096 29409 ft 558 kts 71°
2026-05-06 09:23 33.91993 -94.60626 29626 ft 561 kts 71°
2026-05-06 09:23 33.93153 -94.56140 29880 ft 562 kts 71°
2026-05-06 09:24 33.94319 -94.51627 30090 ft 566 kts 71°
2026-05-06 09:24 33.95489 -94.47092 30305 ft 568 kts 71°
2026-05-06 09:24 33.96661 -94.42540 30518 ft 570 kts 71°
2026-05-06 09:24 33.97834 -94.37972 30723 ft 573 kts 71°
2026-05-06 09:25 33.99013 -94.33364 30916 ft 576 kts 71°
2026-05-06 09:25 34.00193 -94.28752 31139 ft 577 kts 71°
2026-05-06 09:25 34.01378 -94.24115 31364 ft 579 kts 71°
2026-05-06 09:25 34.02565 -94.19473 31552 ft 581 kts 71°
2026-05-06 09:26 34.03756 -94.14810 31726 ft 582 kts 71°
2026-05-06 09:26 34.04949 -94.10128 31887 ft 585 kts 71°
2026-05-06 09:26 34.06142 -94.05431 32054 ft 587 kts 71°
2026-05-06 09:26 34.07335 -94.00715 32236 ft 588 kts 71°
2026-05-06 09:27 34.08527 -93.95989 32397 ft 590 kts 71°
2026-05-06 09:27 34.09722 -93.91252 32544 ft 591 kts 71°
2026-05-06 09:27 34.10919 -93.86499 32658 ft 593 kts 71°
2026-05-06 09:27 34.12119 -93.81732 32782 ft 594 kts 72°
2026-05-06 09:28 34.13320 -93.76955 32910 ft 596 kts 72°
2026-05-06 09:28 34.15719 -93.67363 33111 ft 597 kts 72°
2026-05-06 09:29 34.18108 -93.57790 33283 ft 599 kts 72°
2026-05-06 09:29 34.20508 -93.48139 33551 ft 598 kts 72°
2026-05-06 09:29 34.21694 -93.43352 33989 ft 591 kts 72°
2026-05-06 09:30 34.22862 -93.38627 34530 ft 583 kts 72°
2026-05-06 09:30 34.24014 -93.33960 35051 ft 576 kts 72°
2026-05-06 09:30 34.25150 -93.29352 35530 ft 569 kts 72°
2026-05-06 09:30 34.26275 -93.24782 35917 ft 565 kts 72°
2026-05-06 09:31 34.27394 -93.20232 36114 ft 566 kts 72°
2026-05-06 09:31 34.28514 -93.15668 36232 ft 567 kts 72°
2026-05-06 09:31 34.29635 -93.11088 36383 ft 568 kts 72°
2026-05-06 09:31 34.30754 -93.06509 36696 ft 565 kts 72°
2026-05-06 09:32 34.31865 -93.01954 36900 ft 563 kts 72°
2026-05-06 09:32 34.34070 -92.92887 36895 ft 558 kts 71°
2026-05-06 09:33 34.36237 -92.83947 36895 ft 551 kts 72°
2026-05-06 09:33 34.38388 -92.75049 36889 ft 550 kts 71°
2026-05-06 09:34 34.40527 -92.66165 36893 ft 549 kts 71°
2026-05-06 09:34 34.42655 -92.57289 36885 ft 549 kts 71°
2026-05-06 09:35 34.45287 -92.48674 36875 ft 541 kts 56°
2026-05-06 09:35 34.49195 -92.40972 36888 ft 534 kts 50°
2026-05-06 09:36 34.53356 -92.33517 36890 ft 534 kts 49°
2026-05-06 09:36 34.57522 -92.26058 36907 ft 534 kts 49°
2026-05-06 09:37 34.61649 -92.18555 36923 ft 535 kts 50°
2026-05-06 09:37 34.65748 -92.11039 36947 ft 541 kts 50°
2026-05-06 09:38 34.69917 -92.03371 36946 ft 547 kts 50°
2026-05-06 09:38 34.74110 -91.95635 36930 ft 547 kts 50°
2026-05-06 09:39 34.78263 -91.87953 36911 ft 540 kts 50°
2026-05-06 09:39 34.82376 -91.80332 36918 ft 537 kts 50°
2026-05-06 09:40 34.86498 -91.72699 36932 ft 543 kts 50°
2026-05-06 09:40 34.92764 -91.61062 36924 ft 551 kts 50°
2026-05-06 09:41 34.96966 -91.53221 36928 ft 554 kts 50°
2026-05-06 09:41 35.01153 -91.45389 36926 ft 555 kts 50°
2026-05-06 09:42 35.05366 -91.37491 36935 ft 555 kts 50°
2026-05-06 09:42 35.09572 -91.29591 36916 ft 554 kts 50°
2026-05-06 09:43 35.13766 -91.21695 36938 ft 553 kts 50°
2026-05-06 09:43 35.17944 -91.13821 36934 ft 551 kts 50°
2026-05-06 09:44 35.22102 -91.05964 36935 ft 550 kts 50°
2026-05-06 09:44 35.26247 -90.98110 36933 ft 548 kts 50°
2026-05-06 09:45 35.30375 -90.90276 36935 ft 547 kts 50°
2026-05-06 09:45 35.34492 -90.82441 36945 ft 547 kts 50°
2026-05-06 09:46 35.37965 -90.75816 36944 ft 547 kts 50°
2026-05-06 09:46 35.42081 -90.67952 36956 ft 548 kts 50°
2026-05-06 09:47 35.46201 -90.60065 36951 ft 550 kts 50°
2026-05-06 09:47 35.50299 -90.52199 36950 ft 552 kts 51°
2026-05-06 09:48 35.54434 -90.44246 36957 ft 553 kts 51°
2026-05-06 09:48 35.58569 -90.36269 36952 ft 554 kts 51°
2026-05-06 09:49 35.61433 -90.30737 36952 ft 555 kts 51°
2026-05-06 09:49 35.65581 -90.22707 36946 ft 557 kts 51°
2026-05-06 09:50 35.69035 -90.16008 36943 ft 558 kts 51°
2026-05-06 09:50 35.73190 -90.07928 36939 ft 559 kts 51°
2026-05-06 09:51 35.78019 -89.98512 36930 ft 560 kts 51°
2026-05-06 09:51 35.81493 -89.91726 36928 ft 559 kts 51°
2026-05-06 09:52 35.85638 -89.83609 36929 ft 559 kts 51°
2026-05-06 09:52 35.89771 -89.75499 36929 ft 558 kts 51°
2026-05-06 09:53 35.93866 -89.67443 36923 ft 557 kts 51°
2026-05-06 09:53 35.97974 -89.59340 36929 ft 556 kts 51°
2026-05-06 09:54 36.02073 -89.51237 36928 ft 555 kts 51°
2026-05-06 09:54 36.06158 -89.43144 36925 ft 555 kts 51°
2026-05-06 09:55 36.10237 -89.35040 36933 ft 554 kts 51°
2026-05-06 09:55 36.14305 -89.26945 36929 ft 554 kts 51°
2026-05-06 09:56 36.18371 -89.18836 36915 ft 554 kts 51°
2026-05-06 09:56 36.22436 -89.10708 36914 ft 555 kts 51°
2026-05-06 09:57 36.26495 -89.02570 36920 ft 555 kts 51°
2026-05-06 09:57 36.30545 -88.94428 36917 ft 555 kts 52°
2026-05-06 09:58 36.34559 -88.86334 36925 ft 554 kts 51°
2026-05-06 09:58 36.38595 -88.78186 36912 ft 554 kts 51°
2026-05-06 09:59 36.42623 -88.70040 36927 ft 553 kts 51°
2026-05-06 09:59 36.46635 -88.61894 36916 ft 552 kts 51°
2026-05-06 10:00 36.50635 -88.53756 36929 ft 551 kts 51°
2026-05-06 10:00 36.54627 -88.45617 36928 ft 550 kts 52°
2026-05-06 10:01 36.58601 -88.37496 36934 ft 549 kts 52°
2026-05-06 10:01 36.62545 -88.29413 36934 ft 549 kts 52°
2026-05-06 10:02 36.66503 -88.21287 36937 ft 549 kts 52°
2026-05-06 10:02 36.70460 -88.13138 36935 ft 549 kts 52°
2026-05-06 10:03 36.74412 -88.04981 36933 ft 550 kts 52°
2026-05-06 10:03 36.78368 -87.96799 36921 ft 550 kts 52°
2026-05-06 10:04 36.82315 -87.88614 36922 ft 551 kts 52°
2026-05-06 10:04 36.86256 -87.80421 36918 ft 551 kts 52°
2026-05-06 10:05 36.90194 -87.72214 36908 ft 550 kts 52°
2026-05-06 10:05 36.94123 -87.64005 36908 ft 550 kts 52°
2026-05-06 10:06 36.98048 -87.55782 36908 ft 550 kts 52°
2026-05-06 10:06 37.01941 -87.47611 36919 ft 550 kts 52°
2026-05-06 10:07 37.05847 -87.39389 36911 ft 549 kts 52°
2026-05-06 10:07 37.09743 -87.31165 36929 ft 549 kts 52°
2026-05-06 10:08 37.13636 -87.22930 36932 ft 549 kts 52°
2026-05-06 10:08 37.17523 -87.14689 36936 ft 549 kts 52°
2026-05-06 10:09 37.21433 -87.06470 36937 ft 548 kts 51°
2026-05-06 10:09 37.25407 -86.98364 36939 ft 548 kts 51°
2026-05-06 10:10 37.29411 -86.90227 36936 ft 548 kts 51°
2026-05-06 10:10 37.33412 -86.82075 36934 ft 549 kts 51°
2026-05-06 10:11 37.37404 -86.73906 36921 ft 548 kts 51°
2026-05-06 10:11 37.41386 -86.65727 36926 ft 548 kts 51°
2026-05-06 10:12 37.45358 -86.57550 36915 ft 547 kts 51°
2026-05-06 10:12 37.49315 -86.49381 36915 ft 546 kts 51°
2026-05-06 10:13 37.53268 -86.41208 36907 ft 546 kts 51°
2026-05-06 10:13 37.57208 -86.33039 36911 ft 545 kts 51°
2026-05-06 10:14 37.61135 -86.24865 36895 ft 545 kts 51°
2026-05-06 10:14 37.65063 -86.16686 36891 ft 545 kts 52°
2026-05-06 10:15 37.68983 -86.08499 36902 ft 545 kts 52°
2026-05-06 10:15 37.72900 -86.00305 36904 ft 546 kts 52°
2026-05-06 10:16 37.76819 -85.92071 36910 ft 547 kts 52°
2026-05-06 10:16 37.80722 -85.83863 36903 ft 548 kts 52°
2026-05-06 10:17 37.84642 -85.75591 36893 ft 548 kts 52°
2026-05-06 10:17 37.88557 -85.67310 36898 ft 548 kts 52°
2026-05-06 10:18 37.92465 -85.59012 36895 ft 548 kts 52°
2026-05-06 10:18 37.96360 -85.50703 36891 ft 548 kts 52°
2026-05-06 10:19 38.00253 -85.42415 36885 ft 547 kts 52°
2026-05-06 10:19 38.04141 -85.34117 36890 ft 547 kts 52°
2026-05-06 10:20 38.08008 -85.25827 36888 ft 546 kts 52°
2026-05-06 10:20 38.11873 -85.17527 36889 ft 546 kts 52°
2026-05-06 10:21 38.15732 -85.09218 36884 ft 546 kts 52°
2026-05-06 10:21 38.19583 -85.00903 36875 ft 546 kts 52°
2026-05-06 10:22 38.23425 -84.92583 36869 ft 545 kts 53°
2026-05-06 10:22 38.27261 -84.84258 36872 ft 545 kts 52°
2026-05-06 10:23 38.31083 -84.75937 36870 ft 544 kts 52°
2026-05-06 10:23 38.34889 -84.67633 36862 ft 542 kts 53°
2026-05-06 10:24 38.38659 -84.59388 36836 ft 540 kts 52°
2026-05-06 10:24 38.42432 -84.51115 36818 ft 539 kts 53°
2026-05-06 10:25 38.46186 -84.42860 36813 ft 537 kts 53°
2026-05-06 10:25 38.49918 -84.34623 36832 ft 535 kts 53°
2026-05-06 10:26 38.53635 -84.26408 36834 ft 533 kts 53°
2026-05-06 10:26 38.57344 -84.18199 36853 ft 534 kts 53°
2026-05-06 10:27 38.61050 -84.09971 36862 ft 534 kts 53°
2026-05-06 10:27 38.64757 -84.01716 36865 ft 536 kts 53°
2026-05-06 10:28 38.68466 -83.93432 36875 ft 537 kts 53°
2026-05-06 10:28 38.72159 -83.85163 36873 ft 538 kts 53°
2026-05-06 10:29 38.75870 -83.76829 36866 ft 539 kts 53°
2026-05-06 10:29 38.79574 -83.68491 36872 ft 539 kts 53°
2026-05-06 10:30 38.83280 -83.60127 36878 ft 539 kts 53°
2026-05-06 10:30 38.86981 -83.51755 36862 ft 540 kts 53°
2026-05-06 10:31 38.90679 -83.43364 36851 ft 540 kts 53°
2026-05-06 10:31 38.94376 -83.34949 36843 ft 540 kts 53°
2026-05-06 10:32 38.98066 -83.26532 36841 ft 540 kts 53°
2026-05-06 10:32 39.01746 -83.18120 36835 ft 540 kts 53°
2026-05-06 10:33 39.05416 -83.09704 36832 ft 539 kts 53°
2026-05-06 10:33 39.09078 -83.01282 36835 ft 539 kts 53°
2026-05-06 10:34 39.12707 -82.92914 36839 ft 538 kts 53°
2026-05-06 10:34 39.16351 -82.84491 36834 ft 538 kts 53°
2026-05-06 10:35 39.19990 -82.76056 36827 ft 538 kts 54°
2026-05-06 10:35 39.23626 -82.67605 36840 ft 538 kts 54°
2026-05-06 10:36 39.27249 -82.59159 36833 ft 538 kts 54°
2026-05-06 10:36 39.30865 -82.50709 36816 ft 538 kts 54°
2026-05-06 10:37 39.34475 -82.42248 36814 ft 537 kts 54°
2026-05-06 10:37 39.37470 -82.35213 36798 ft 537 kts 54°
2026-05-06 10:38 39.41067 -82.26742 36796 ft 537 kts 54°
2026-05-06 10:38 39.44655 -82.18268 36797 ft 537 kts 54°
2026-05-06 10:39 39.48237 -82.09783 36805 ft 537 kts 54°
2026-05-06 10:39 39.51814 -82.01293 36805 ft 537 kts 54°
2026-05-06 10:40 39.55362 -81.92840 36806 ft 537 kts 54°
2026-05-06 10:40 39.58927 -81.84327 36817 ft 537 kts 54°
2026-05-06 10:41 39.62488 -81.75804 36813 ft 538 kts 55°
2026-05-06 10:41 39.66043 -81.67267 36823 ft 538 kts 55°
2026-05-06 10:42 39.68567 -81.61190 36820 ft 538 kts 55°
2026-05-06 10:42 39.72115 -81.52632 36815 ft 538 kts 55°
2026-05-06 10:43 39.75652 -81.44076 36817 ft 537 kts 55°
2026-05-06 10:44 39.80945 -81.31227 36827 ft 536 kts 55°
2026-05-06 10:44 39.84458 -81.22668 36820 ft 536 kts 55°
2026-05-06 10:45 39.87962 -81.14105 36810 ft 535 kts 55°
2026-05-06 10:45 39.91447 -81.05568 36815 ft 533 kts 55°
2026-05-06 10:46 39.94918 -80.97038 36813 ft 532 kts 55°
2026-05-06 10:46 39.98354 -80.88571 36804 ft 531 kts 55°
2026-05-06 10:47 40.01796 -80.80065 36802 ft 530 kts 56°
2026-05-06 10:47 40.05231 -80.71552 36798 ft 530 kts 56°
2026-05-06 10:48 40.08665 -80.63019 36796 ft 531 kts 56°
2026-05-06 10:48 40.12095 -80.54475 36797 ft 531 kts 56°
2026-05-06 10:49 40.15522 -80.45909 36808 ft 531 kts 56°
2026-05-06 10:49 40.18938 -80.37345 36812 ft 531 kts 56°
2026-05-06 10:50 40.22348 -80.28776 36818 ft 531 kts 55°
2026-05-06 10:50 40.25753 -80.20194 36829 ft 531 kts 56°
2026-05-06 10:51 40.29131 -80.11653 36821 ft 531 kts 56°
2026-05-06 10:51 40.32525 -80.03050 36814 ft 532 kts 56°
2026-05-06 10:52 40.35915 -79.94430 36808 ft 532 kts 56°
2026-05-06 10:52 40.39301 -79.85801 36803 ft 532 kts 56°
2026-05-06 10:53 40.42679 -79.77164 36808 ft 531 kts 56°
2026-05-06 10:53 40.46046 -79.68525 36811 ft 531 kts 56°
2026-05-06 10:54 40.49406 -79.59884 36815 ft 531 kts 56°
2026-05-06 10:54 40.52756 -79.51240 36826 ft 530 kts 56°
2026-05-06 10:55 40.56071 -79.42664 36826 ft 529 kts 57°
2026-05-06 10:55 40.59400 -79.34028 36823 ft 528 kts 57°
2026-05-06 10:56 40.62719 -79.25393 36830 ft 528 kts 57°
2026-05-06 10:56 40.66027 -79.16760 36818 ft 528 kts 57°
2026-05-06 10:57 40.69331 -79.08111 36822 ft 527 kts 57°
2026-05-06 10:57 40.72599 -78.99528 36824 ft 526 kts 57°
2026-05-06 10:58 40.75876 -78.90902 36822 ft 526 kts 57°
2026-05-06 10:58 40.79148 -78.82265 36810 ft 525 kts 57°
2026-05-06 10:59 40.82408 -78.73633 36821 ft 524 kts 58°
2026-05-06 10:59 40.85653 -78.65009 36811 ft 524 kts 58°
2026-05-06 11:00 40.88885 -78.56396 36816 ft 523 kts 58°
2026-05-06 11:00 40.92109 -78.47784 36819 ft 522 kts 58°
2026-05-06 11:01 40.95322 -78.39174 36828 ft 522 kts 58°
2026-05-06 11:01 40.98530 -78.30550 36817 ft 523 kts 58°
2026-05-06 11:02 41.01733 -78.21910 36824 ft 522 kts 58°
2026-05-06 11:02 41.04907 -78.13328 36827 ft 522 kts 58°
2026-05-06 11:03 41.08100 -78.04674 36831 ft 522 kts 58°
2026-05-06 11:03 41.11281 -77.96017 36827 ft 523 kts 58°
2026-05-06 11:04 41.14455 -77.87350 36808 ft 522 kts 59°
2026-05-06 11:04 41.17614 -77.78695 36825 ft 520 kts 59°
2026-05-06 11:05 41.20759 -77.70064 36805 ft 519 kts 59°
2026-05-06 11:05 41.23889 -77.61446 36810 ft 517 kts 59°
2026-05-06 11:06 41.27002 -77.52855 36812 ft 516 kts 59°
2026-05-06 11:06 41.30099 -77.44273 36806 ft 513 kts 59°
2026-05-06 11:07 41.33182 -77.35706 36804 ft 513 kts 59°
2026-05-06 11:07 41.36252 -77.27150 36815 ft 512 kts 59°
2026-05-06 11:08 41.39294 -77.18644 36814 ft 512 kts 59°
2026-05-06 11:08 41.42353 -77.10074 36806 ft 512 kts 59°
2026-05-06 11:09 41.45405 -77.01499 36806 ft 512 kts 59°
2026-05-06 11:09 41.48443 -76.92927 36822 ft 511 kts 59°
2026-05-06 11:10 41.51482 -76.84332 36809 ft 512 kts 59°
2026-05-06 11:10 41.54512 -76.75728 36819 ft 512 kts 60°
2026-05-06 11:11 41.57534 -76.67127 36815 ft 511 kts 60°
2026-05-06 11:11 41.60541 -76.58538 36820 ft 510 kts 60°
2026-05-06 11:12 41.63541 -76.49948 36820 ft 509 kts 60°
2026-05-06 11:12 41.66504 -76.41438 36829 ft 508 kts 60°
2026-05-06 11:13 41.69475 -76.32879 36828 ft 506 kts 60°
2026-05-06 11:13 41.72427 -76.24342 36815 ft 505 kts 60°
2026-05-06 11:14 41.75367 -76.15818 36813 ft 503 kts 60°
2026-05-06 11:14 41.78293 -76.07313 36828 ft 502 kts 60°
2026-05-06 11:15 41.81207 -75.98812 36826 ft 502 kts 60°
2026-05-06 11:15 41.84115 -75.90300 36831 ft 501 kts 61°
2026-05-06 11:16 41.87011 -75.81803 36839 ft 501 kts 61°
2026-05-06 11:16 41.89904 -75.73291 36842 ft 501 kts 61°
2026-05-06 11:17 41.92769 -75.64827 36844 ft 502 kts 61°
2026-05-06 11:17 41.95665 -75.56253 36844 ft 504 kts 61°
2026-05-06 11:18 41.98555 -75.47666 36848 ft 505 kts 61°
2026-05-06 11:18 42.01441 -75.39064 36839 ft 505 kts 62°
2026-05-06 11:19 42.04318 -75.30460 36844 ft 505 kts 62°
2026-05-06 11:19 42.07196 -75.21828 36846 ft 505 kts 62°
2026-05-06 11:20 42.09617 -75.14544 36850 ft 505 kts 62°
2026-05-06 11:20 42.12480 -75.05904 36856 ft 505 kts 62°
2026-05-06 11:21 42.14855 -74.98722 36849 ft 505 kts 62°
2026-05-06 11:21 42.17359 -74.91130 36242 ft 510 kts 62°
2026-05-06 11:21 42.18794 -74.86770 35749 ft 506 kts 63°
2026-05-06 11:22 42.20212 -74.82449 35297 ft 505 kts 63°
2026-05-06 11:22 42.21627 -74.78130 34854 ft 502 kts 63°
2026-05-06 11:22 42.23036 -74.73820 34411 ft 501 kts 64°
2026-05-06 11:22 42.24438 -74.69530 33964 ft 499 kts 64°
2026-05-06 11:23 42.25835 -74.65247 33518 ft 498 kts 64°
2026-05-06 11:23 42.27226 -74.60974 33070 ft 497 kts 64°
2026-05-06 11:23 42.28617 -74.56700 32633 ft 500 kts 64°
2026-05-06 11:23 42.30025 -74.52368 32203 ft 505 kts 64°
2026-05-06 11:24 42.31440 -74.48004 31757 ft 509 kts 65°
2026-05-06 11:24 42.32859 -74.43624 31311 ft 509 kts 65°
2026-05-06 11:24 42.34275 -74.39243 30860 ft 508 kts 65°
2026-05-06 11:24 42.35685 -74.34869 30423 ft 507 kts 65°
2026-05-06 11:25 42.37091 -74.30502 29976 ft 506 kts 65°
2026-05-06 11:25 42.38497 -74.26128 29527 ft 505 kts 65°
2026-05-06 11:25 42.39894 -74.21775 29075 ft 502 kts 65°
2026-05-06 11:25 42.41273 -74.17470 28646 ft 495 kts 65°
2026-05-06 11:26 42.42178 -74.14645 28388 ft 495 kts 65°
2026-05-06 11:26 42.43552 -74.10348 28000 ft 498 kts 65°
2026-05-06 11:26 42.44920 -74.06063 27594 ft 491 kts 65°
2026-05-06 11:26 42.46687 -74.00508 27049 ft 480 kts 65°
2026-05-06 11:27 42.47999 -73.96380 26638 ft 472 kts 65°
2026-05-06 11:27 42.49289 -73.92323 26239 ft 466 kts 66°
2026-05-06 11:27 42.50563 -73.88308 25843 ft 462 kts 66°
2026-05-06 11:27 42.51427 -73.85608 25572 ft 463 kts 65°
2026-05-06 11:28 42.52726 -73.81606 25181 ft 466 kts 65°
2026-05-06 11:28 42.54022 -73.77636 24787 ft 466 kts 65°
2026-05-06 11:28 42.55327 -73.73640 24388 ft 463 kts 65°
2026-05-06 11:28 42.56629 -73.69642 23988 ft 461 kts 66°
2026-05-06 11:29 42.57916 -73.65676 23586 ft 459 kts 66°
2026-05-06 11:29 42.59196 -73.61724 23190 ft 456 kts 66°
2026-05-06 11:29 42.60468 -73.57787 22792 ft 454 kts 66°
2026-05-06 11:29 42.61732 -73.53866 22392 ft 452 kts 66°
2026-05-06 11:30 42.62987 -73.49966 22002 ft 450 kts 66°
2026-05-06 11:30 42.64235 -73.46079 21590 ft 447 kts 66°
2026-05-06 11:30 42.65472 -73.42224 21189 ft 444 kts 66°
2026-05-06 11:30 42.66703 -73.38382 20792 ft 442 kts 67°
2026-05-06 11:31 42.67923 -73.34571 20449 ft 437 kts 66°
2026-05-06 11:31 42.69130 -73.30795 20125 ft 433 kts 67°
2026-05-06 11:31 42.70324 -73.27053 19808 ft 430 kts 67°
2026-05-06 11:31 42.71511 -73.23328 19478 ft 428 kts 67°
2026-05-06 11:32 42.72690 -73.19620 19153 ft 426 kts 67°
2026-05-06 11:32 42.73864 -73.15925 18839 ft 425 kts 67°
2026-05-06 11:32 42.75030 -73.12252 18500 ft 421 kts 67°
2026-05-06 11:32 42.76183 -73.08613 18176 ft 415 kts 67°
2026-05-06 11:33 42.77250 -73.04996 17834 ft 409 kts 76°
2026-05-06 11:33 42.77674 -73.01225 17523 ft 399 kts 89°
2026-05-06 11:33 42.77849 -72.97489 17187 ft 393 kts 90°
2026-05-06 11:33 42.78004 -72.93798 16851 ft 388 kts 90°
2026-05-06 11:34 42.78167 -72.90152 16537 ft 385 kts 90°
2026-05-06 11:34 42.78346 -72.86534 16214 ft 383 kts 90°
2026-05-06 11:34 42.78536 -72.82933 15871 ft 380 kts 90°
2026-05-06 11:34 42.78730 -72.79354 15554 ft 378 kts 90°
2026-05-06 11:35 42.78922 -72.75786 15229 ft 378 kts 90°
2026-05-06 11:35 42.79114 -72.72257 14920 ft 378 kts 90°
2026-05-06 11:35 42.79309 -72.68687 14594 ft 378 kts 90°
2026-05-06 11:35 42.79505 -72.65114 14265 ft 378 kts 90°
2026-05-06 11:36 42.79699 -72.61554 13943 ft 376 kts 90°
2026-05-06 11:36 42.79892 -72.58026 13614 ft 372 kts 90°
2026-05-06 11:36 42.80083 -72.54533 13286 ft 368 kts 91°
2026-05-06 11:36 42.80268 -72.51078 12954 ft 364 kts 91°
2026-05-06 11:37 42.80448 -72.47658 12637 ft 361 kts 91°
2026-05-06 11:37 42.80624 -72.44255 12312 ft 359 kts 91°
2026-05-06 11:37 42.80795 -72.40882 11982 ft 356 kts 91°
2026-05-06 11:37 42.80963 -72.37527 11618 ft 354 kts 91°
2026-05-06 11:38 42.81131 -72.34176 11165 ft 355 kts 91°
2026-05-06 11:38 42.81298 -72.30818 10720 ft 356 kts 90°
2026-05-06 11:38 42.81465 -72.27484 10532 ft 348 kts 90°
2026-05-06 11:38 42.81628 -72.24262 10506 ft 334 kts 91°
2026-05-06 11:39 42.81784 -72.21157 10490 ft 324 kts 91°
2026-05-06 11:39 42.81929 -72.18161 10461 ft 318 kts 91°
2026-05-06 11:39 42.82074 -72.15123 10063 ft 326 kts 91°
2026-05-06 11:39 42.82234 -72.12037 9709 ft 327 kts 90°
2026-05-06 11:40 42.82403 -72.08943 9322 ft 328 kts 90°
2026-05-06 11:40 42.82572 -72.05841 8949 ft 328 kts 89°
2026-05-06 11:40 42.82738 -72.02735 8572 ft 328 kts 89°
2026-05-06 11:40 42.82904 -71.99636 8194 ft 325 kts 89°
2026-05-06 11:41 42.83045 -71.96604 7806 ft 317 kts 90°
2026-05-06 11:41 42.83231 -71.93639 7409 ft 313 kts 79°
2026-05-06 11:41 42.84083 -71.90936 7025 ft 311 kts 56°
2026-05-06 11:41 42.85310 -71.88534 6674 ft 308 kts 54°
2026-05-06 11:42 42.86570 -71.86176 6283 ft 306 kts 53°
2026-05-06 11:42 42.87821 -71.83842 5930 ft 303 kts 53°
2026-05-06 11:42 42.89032 -71.81554 5561 ft 301 kts 54°
2026-05-06 11:42 42.90244 -71.79240 5174 ft 297 kts 54°
2026-05-06 11:43 42.91425 -71.76989 5028 ft 283 kts 54°
2026-05-06 11:43 42.92535 -71.74866 4997 ft 267 kts 54°
2026-05-06 11:43 42.93594 -71.72834 5014 ft 258 kts 54°
2026-05-06 11:44 42.95694 -71.68878 5028 ft 262 kts 45°
2026-05-06 11:44 42.97207 -71.67591 4941 ft 256 kts 11°
2026-05-06 11:44 42.98952 -71.67180 4727 ft 254 kts
2026-05-06 11:44 43.00705 -71.66889 4451 ft 252 kts
2026-05-06 11:45 43.02426 -71.66593 4202 ft 247 kts
2026-05-06 11:45 43.04108 -71.66292 3969 ft 239 kts
2026-05-06 11:45 43.05654 -71.65555 3678 ft 239 kts 36°
2026-05-06 11:45 43.06660 -71.63827 3449 ft 229 kts 68°
2026-05-06 11:46 43.07156 -71.61789 3205 ft 224 kts 79°
2026-05-06 11:46 43.07540 -71.59740 3050 ft 219 kts 80°
2026-05-06 11:46 43.07887 -71.57748 3006 ft 210 kts 90°
2026-05-06 11:46 43.07664 -71.55885 3026 ft 195 kts 119°
2026-05-06 11:47 43.07000 -71.54275 2916 ft 196 kts 131°
2026-05-06 11:47 43.06243 -71.52727 2739 ft 194 kts 130°
2026-05-06 11:47 43.05494 -71.51260 2581 ft 180 kts 138°
2026-05-06 11:47 43.04973 -71.50678 2509 ft 166 kts 157°
2026-05-06 11:48 43.04145 -71.50063 2429 ft 151 kts 156°
2026-05-06 11:48 43.03271 -71.49405 2268 ft 139 kts 159°
2026-05-06 11:48 43.02397 -71.48845 2084 ft 138 kts 161°
2026-05-06 11:48 43.01529 -71.48303 1885 ft 136 kts 161°
2026-05-06 11:49 43.00646 -71.47793 1679 ft 138 kts 159°
2026-05-06 11:49 42.99764 -71.47270 1477 ft 140 kts 159°
2026-05-06 11:49 42.98875 -71.46743 1297 ft 139 kts 158°
2026-05-06 11:49 42.97993 -71.46219 1108 ft 138 kts 158°
2026-05-06 11:50 42.97127 -71.45675 922 ft 136 kts 156°
2026-05-06 11:50 42.96258 -71.45165 781 ft 137 kts 160°
2026-05-06 11:50 42.95367 -71.44700 567 ft 138 kts 155°
2026-05-06 11:50 42.94489 -71.44137 355 ft 140 kts 158°
2026-05-06 11:51 42.93611 -71.43622 254 ft 132 kts 158°
2026-05-06 11:51 42.92861 -71.43176 253 ft 92 kts 156°
2026-05-06 11:51 42.92401 -71.42905 264 ft 49 kts 156°
2026-05-06 11:51 42.92177 -71.42769 272 ft 26 kts 157°
2026-05-06 11:52 42.92025 -71.42673 273 ft 23 kts 152°
2026-05-06 11:52 42.91899 -71.42734 275 ft 22 kts 249°
2026-05-06 11:52 42.91894 -71.42913 276 ft 17 kts 338°
2026-05-06 11:52 42.92013 -71.42919 272 ft 17 kts
2026-05-06 11:53 42.92127 -71.42910 270 ft 16 kts 354°
2026-05-06 11:53 42.92230 -71.42966 268 ft 16 kts 336°
2026-05-06 11:53 42.92327 -71.43024 265 ft 15 kts 336°
2026-05-06 11:53 42.92424 -71.43081 263 ft 16 kts 336°
2026-05-06 11:54 42.92528 -71.43144 260 ft 16 kts 336°
2026-05-06 11:54 42.92629 -71.43206 258 ft 16 kts 336°
2026-05-06 11:54 42.92704 -71.43276 257 ft 10 kts 296°
2026-05-06 11:54 42.92680 -71.43350 257 ft 10 kts 225°
2026-05-06 11:55 42.92669 -71.43436 256 ft 10 kts 289°
2026-05-06 11:55 42.92703 -71.43512 254 ft 10 kts 263°
2026-05-06 11:55 42.92680 -71.43605 252 ft 11 kts 251°
2026-05-06 11:55 42.92653 -71.43710 250 ft 12 kts 251°
2026-05-06 11:56 42.92620 -71.43826 248 ft 14 kts 243°
2026-05-06 11:56 42.92585 -71.43923 245 ft 8 kts 244°
2026-05-06 11:56 42.92556 -71.44001 243 ft 10 kts 243°
2026-05-06 11:56 42.92502 -71.44060 242 ft 10 kts 189°
2026-05-06 11:57 42.92471 -71.44055 243 ft 2 kts 178°
2026-05-06 11:57 42.92461 -71.44055 243 ft 1 kts 184°
2026-05-06 11:57 42.92451 -71.44055 243 ft 1 kts 173°
2026-05-06 11:57 42.92432 -71.44046 244 ft 5 kts 159°
2026-05-06 11:58 42.92423 -71.44042 244 ft 4 kts 159°
2026-05-06 11:58 42.92395 -71.44026 245 ft 4 kts 157°
2026-05-06 11:58 42.92391 -71.44023 245 ft 0 kts 157°